Location: Penton Mewsey
(51.2167°N, 1.5167°W)
Time: 07:31:40
(UTC+00:00)

Cosmos 2219 Rocket - Pass Details

Date: 30 March 2020
Orbit: 829 x 845 km, 71.0° (Epoch: 02 June)

Event Time Altitude Azimuth Distance (km) Brightness Sun altitude
Rises 19:48:13 0° 250° (WSW) 3,393 6.1 -11.6°
Reaches altitude 10° 19:51:03 10° 262° (W) 2,459 5.6 -12.1°
Maximum altitude 19:55:46 27° 319° (NW) 1,579 4.4 -12.7°
Drops below altitude 10° 20:00:29 10° 16° (NNE) 2,459 4.7 -13.4°
Sets 20:03:20 0° 29° (NNE) 3,394 5.3 -13.8°
